Home > Weather > Trujillo > Past weeks

Flag for Peru Past Weather in Trujillo, La Libertad, Peru — Yesterday and Last 2 Weeks

Now
72 °F

Passing clouds.


Feels Like: 75 °F
Forecast: N/A
Wind: 8 mph from Southeast

Location: Trujillo Airport

Current Time: Jul 23, 2016 at 6:13:32 PM

Latest Report: Jul 23, 2016 at 5:00 PM


Visibility: N/A

Pressure: 29.89 "Hg

Humidity: 69%

Dew Point: 61 °F

Location of TrujilloLocation

Past Weather in Trujillo — Graph

°F

Trujillo Temperature Yesterday

Maximum temperature yesterday: 72 °F (at 11:00 AM)
Minimum temperature yesterday: 63 °F (at 4:00 AM)
Average temperature yesterday: 67 °F

High & Low Weather Summary for the Past Weeks

 TemperatureHumidityPressure
High75 °F (Jul 11, 2:00 PM)94% (Jul 10, 6:00 AM)30.04 "Hg (Jul 10, 6:00 AM)
Low61 °F (Jul 10, 6:00 AM)57% (Jul 18, 3:00 PM)29.86 "Hg (Jul 19, 4:00 PM)
Average67 °F82%29.96 "Hg
* Reported Jul 8 4:00 PM — Jul 23 4:00 PM, Trujillo, Weather by CustomWeather, © 2016

Note: Actual official high and low records may vary slightly from our data, if they occured in-between our weather recording intervals... More about our weather records

Advertising

Trujillo Weather History for the Previous 24 Hours

Scroll right to see more
 ConditionsComfort  
Time TempWeatherWind HumidityBarometerVisibility
4:00 PM
Sat, Jul 23
73 °FSunny.7 mph65%29.86 "Hg10 mi
3:00 PM73 °FSunny.8 mph65%29.89 "Hg10 mi
2:00 PM72 °FSunny.8 mph69%29.89 "Hg10 mi
1:00 PM72 °FSunny.8 mph69%29.92 "Hg10 mi
12:00 PM70 °FSunny.8 mph78%29.92 "Hg10 mi
11:00 AM70 °FSunny.9 mph78%29.95 "Hg10 mi
10:00 AM68 °FPartly sunny.8 mph83%29.95 "HgN/A
9:00 AM68 °FOvercast.6 mph78%29.98 "Hg5 mi
8:00 AM66 °FOvercast.3 mph83%29.95 "HgN/A
7:00 AM66 °FOvercast.3 mph83%29.95 "HgN/A
6:00 AM64 °FOvercast.6 mph88%29.95 "HgN/A
5:00 AM64 °FOvercast.6 mph88%29.95 "HgN/A
4:00 AM64 °FOvercast.8 mph88%29.95 "HgN/A
3:00 AM66 °FOvercast.7 mph88%29.95 "HgN/A
2:00 AM66 °FOvercast.8 mph88%29.95 "HgN/A
1:00 AM66 °FOvercast.7 mph88%29.98 "HgN/A
12:00 AM66 °FOvercast.7 mph88%29.98 "HgN/A
11:00 PM
Fri, Jul 22
66 °FOvercast.6 mph88%29.98 "HgN/A
10:00 PM66 °FOvercast.7 mph88%29.98 "HgN/A
9:00 PM66 °FOvercast.7 mph88%29.98 "HgN/A
8:00 PM66 °FPassing clouds.8 mph88%29.98 "HgN/A
7:00 PM66 °FClear.3 mph83%29.95 "Hg10 mi
6:00 PM68 °FSunny.6 mph78%29.95 "Hg10 mi
Weather by CustomWeather, © 2016

See weather overviewHow to use our weather pages